[ ตารางข้อมูล ] [ Min-Max ] [ วันนี้4 ] [ วันนี้2 ] [ เทียบ3วัน A ] [ เทียบ4วัน B ]   

วันนี้2   [ ◀ ช่วงเก่ากว่า ] [ ช่วงที่ 173 ] [ ช่วงใหม่กว่า ▶ ] [ ล่าสุด ]    [ 3 ชั่วโมง ] [ 6 ชั่วโมง ] [ 12 ชั่วโมง ] [ 24 ชั่วโมง ]   วันนี้2

อุณภูมิตู้ Knockdown4529  ราย 3 ชั่วโมง  ที่วัดได้ ในช่วงวันเวลา 11/04/2026 (14:33) ถึง 11/04/2026 (17:33) 
ความชื้นในตู้ Knockdown4529  ราย 3 ชั่วโมง  ที่วัดได้ ในช่วงวันเวลา 11/04/2026 (14:33) ถึง 11/04/2026 (17:33) 

 
DS18B20SHTC3 
IDDate d/m/Y & Timedata1
สูง
data2
ต่ำ
data3
นอก
temp
pcb
hum
pcb
Time
 10915  11/04/2026 17:29:58  32.2  32.3  31.8  32.2  68.0  17:29 
 10914  11/04/2026 17:25:17  32.2  32.4  31.8  32.1  68.2  17:25 
 10913  11/04/2026 17:20:33  32.3  32.4  31.9  32.3  68.1  17:20 
 10912  11/04/2026 17:15:50  32.3  32.4  31.8  32.3  68.1  17:15 
 10911  11/04/2026 17:11:08  32.4  32.4  31.9  32.4  68.2  17:11 
 10910  11/04/2026 17:06:27  32.4  32.5  32.0  32.4  68.2  17:06 
 10909  11/04/2026 17:01:45  32.4  32.5  32.0  32.4  68.4  17:01 
 10908  11/04/2026 16:57:03  32.4  32.6  32.0  32.5  68.3  16:57 
 10907  11/04/2026 16:52:21  32.5  32.6  32.0  32.6  67.9  16:52 
 10906  11/04/2026 16:47:40  32.6  32.7  32.2  32.6  68.3  16:47 
 10905  11/04/2026 16:42:55  32.8  32.8  32.2  33.0  68.4  16:42 
 10904  11/04/2026 16:38:14  33.2  32.9  32.4  33.0  68.8  16:38 
 10903  11/04/2026 16:33:32  33.2  32.9  32.4  33.0  68.7  16:33 
 10902  11/04/2026 16:28:49  33.2  32.9  32.2  33.0  68.8  16:28 
 10901  11/04/2026 16:24:07  33.2  32.9  32.4  33.1  68.7  16:24 
 10900  11/04/2026 16:19:26  33.3  32.9  32.5  33.1  68.6  16:19 
 10899  11/04/2026 16:14:41  33.4  32.9  32.5  33.1  68.6  16:14 
 10898  11/04/2026 16:09:59  33.4  32.9  32.5  33.1  68.5  16:09 
 10897  11/04/2026 16:05:15  33.4  32.9  32.7  33.1  68.5  16:05 
 10896  11/04/2026 16:00:31  33.4  32.9  32.9  33.2  68.5  16:00 
 10895  11/04/2026 15:55:49  33.5  33.0  32.5  33.2  68.4  15:55 
 10894  11/04/2026 15:51:07  33.6  33.0  32.7  33.3  68.2  15:51 
 10893  11/04/2026 15:46:25  33.6  33.0  33.0  33.3  68.2  15:46 
 10892  11/04/2026 15:41:43  33.6  33.0  32.8  33.5  68.3  15:41 

Data every 5 minute.


ใช้เวลาประมวลผล 0.00180 วินาที